NOAA 19 [+]

Last updated on Fri Dec 29 2023 00:02:19 GMT+0000 (Coordinated Universal Time)

1 33591U 09005A 23362.43847139 .00000301 00000+0 18606-3 0 9997 2 33591 99.0743 51.2256 0014589 58.8377 301.4222 14.12895229767378
UTC large
Height (km)
Speed (km/s)
/
Latitude / Longitude
Inclination (degrees)
Orbital Period (minutes)
Azimuth
Elevation
Range (km)
Doppler Factor

Next 0 passes for location: London (51.5072 / 0.1276)

Sorry there are no passes over London.